Location: South Cushing
(43.9686°N, 69.2945°W)
Time: 09:44:22
(UTC-05:00)

ISS - Visible Passes

Search period start: 23 November 2017 00:00
Search period end: 03 December 2017 00:00
Orbit: 402 x 407 km, 51.6° (Epoch: 23 November)

Date Brightness Start Highest point End Pass type
(mag) Time Alt. Az. Time Alt. Az. Time Alt. Az.
25 Nov -1.2 17:52:35 10° S 17:53:00 12° SSE 17:53:00 12° SSE visible
26 Nov -1.0 18:35:09 10° SW 18:35:51 15° SW 18:35:51 15° SW visible
27 Nov -2.8 17:43:10 10° SSW 17:45:56 33° SSE 17:45:56 33° SSE visible
28 Nov -2.0 16:51:36 10° S 16:53:59 19° SE 16:55:56 12° E visible
28 Nov -1.7 18:26:55 10° WSW 18:28:36 27° WSW 18:28:36 27° WSW visible
29 Nov -3.9 17:34:32 10° SW 17:37:48 76° SSE 17:38:30 51° ENE visible
30 Nov -3.1 16:42:24 10° SSW 16:45:30 41° SE 16:48:21 12° ENE visible
30 Nov -1.9 18:18:58 10° W 18:21:00 28° WNW 18:21:00 28° WNW visible
01 Dec -3.4 17:26:20 10° WSW 17:29:33 53° NNW 17:30:46 31° NE visible
02 Dec -3.8 16:33:50 10° WSW 16:37:07 88° NNW 16:40:25 10° ENE visible
02 Dec -1.8 18:11:07 10° WNW 18:13:09 23° NW 18:13:09 23° NW visible
